period_start,C,m1,H,J0,J1,J2,J3,J4,J5,JA,JB,JC,JD,JJ,JK,JN,#
2016-01-19 00:00:40,0.03,1.86,0.00,16.74,21.24,24.94,15.27,48.52,1043.72,2055.98,2878.02,2688.06,3014.00,599.81,624.94,22.78,0000 0000 0000 0000 000000
2016-01-19 00:05:42,0.01,1.86,0.00,16.73,21.22,24.92,15.20,48.49,1043.60,2055.98,2877.54,2688.00,3013.98,599.74,624.88,22.83,0000 0000 0000 0000 000000
2016-01-19 00:10:43,0.01,1.86,0.00,16.73,21.20,24.88,15.31,48.48,1043.58,2055.98,2877.04,2687.99,3013.77,600.10,625.14,22.88,0000 0000 0000 0000 000000
2016-01-19 00:15:44,0.01,1.87,0.00,16.75,21.18,24.88,15.28,48.36,1043.56,2055.99,2877.00,2687.98,3013.11,599.77,624.90,22.93,0000 0000 0000 0000 000000
2016-01-19 00:20:46,0.01,1.87,0.00,16.74,21.17,24.89,15.21,48.27,1043.57,2055.99,2876.85,2687.70,3013.01,599.68,624.87,22.98,0000 0000 0000 0000 000000
2016-01-19 00:25:47,0.03,1.87,0.00,16.75,21.15,24.85,15.21,48.31,1043.52,2055.99,2876.09,2687.10,3012.99,599.92,624.93,23.03,0000 0000 0000 0000 000000
2016-01-19 00:30:48,0.00,1.87,0.00,16.74,21.13,24.87,15.30,48.49,1043.52,2056.00,2875.96,2687.00,3012.92,600.01,625.06,23.08,0000 0000 0000 0000 000000
2016-01-19 00:35:49,0.03,1.87,0.00,16.74,21.12,24.84,15.25,48.56,1043.51,2056.00,2875.30,2686.99,3012.21,600.10,625.10,23.13,0000 0000 0000 0000 000000
2016-01-19 00:40:51,0.02,1.87,0.00,16.69,21.10,24.85,15.35,48.48,1043.53,2056.02,2874.88,2686.70,3012.00,600.26,625.41,23.18,0000 0000 0000 0000 000000
2016-01-19 00:45:52,0.03,1.87,0.00,16.66,21.09,24.80,15.31,48.42,1043.51,2056.02,2874.11,2686.06,3011.81,599.93,625.18,23.23,0000 0000 0000 0000 000000
2016-01-19 00:50:53,0.02,1.87,0.00,16.67,21.07,24.76,15.36,48.59,1043.54,2056.06,2873.97,2686.00,3011.15,600.22,625.32,23.28,0000 0000 0000 0000 000000
2016-01-19 00:55:54,0.03,1.87,0.00,16.64,21.06,24.74,15.26,48.37,1043.52,2056.11,2873.26,2685.99,3011.00,600.05,625.01,23.33,0000 0000 0000 0000 000000
2016-01-19 01:00:55,0.01,1.88,0.00,16.62,21.04,24.76,15.24,48.23,1043.55,2056.24,2873.00,2685.82,3010.96,600.05,625.37,23.38,0000 0000 0000 0000 000000
2016-01-19 01:05:57,0.06,1.88,0.00,16.64,21.04,24.76,15.33,48.34,1043.57,2056.41,2872.90,2685.23,3010.45,599.87,625.13,23.43,0000 0000 0000 0000 000000
2016-01-19 01:10:58,0.03,1.88,0.00,16.62,21.02,24.79,15.28,48.28,1043.53,2056.54,2872.14,2685.01,3010.02,599.89,625.11,23.48,0000 0000 0000 0000 000000
2016-01-19 01:15:59,-0.00,1.88,0.00,16.63,21.02,24.74,15.28,48.38,1043.49,2056.55,2871.98,2684.98,3009.96,599.98,625.17,23.53,0000 0000 0000 0000 000000
2016-01-19 01:21:01,0.07,1.88,0.00,16.62,21.01,24.72,15.27,48.30,1043.49,2056.73,2871.34,2684.61,3009.38,599.75,624.99,23.58,0000 0000 0000 0000 000000
2016-01-19 01:26:02,0.03,1.89,0.00,16.61,20.99,24.73,15.30,48.47,1043.48,2056.81,2870.98,2684.03,3009.01,600.07,625.49,23.63,0000 0000 0000 0000 000000
2016-01-19 01:31:04,0.02,1.89,0.00,16.60,20.99,24.69,15.24,48.46,1043.47,2056.89,2870.19,2683.99,3008.83,599.86,625.07,23.68,0000 0000 0000 0000 000000
2016-01-19 01:36:05,0.03,1.89,0.00,16.61,20.98,24.67,15.29,48.35,1043.47,2056.95,2869.88,2683.80,3008.08,599.88,625.16,23.73,0000 0000 0000 0000 000000
2016-01-19 01:41:06,0.03,1.89,0.00,16.59,20.97,24.67,15.28,48.46,1043.47,2056.94,2869.06,2683.07,3008.00,599.83,625.20,23.78,0000 0000 0000 0000 000000
2016-01-19 01:46:08,0.01,1.89,0.00,16.58,20.96,24.66,15.20,48.36,1043.47,2056.96,2868.59,2683.00,3007.95,600.14,625.48,23.83,0000 0000 0000 0000 000000
2016-01-19 01:51:09,0.02,1.89,0.00,16.54,20.94,24.65,15.25,48.43,1043.47,2056.98,2868.02,2682.96,3007.48,599.62,624.82,23.88,0000 0000 0000 0000 000000
2016-01-19 01:56:10,0.02,1.89,0.00,16.51,20.94,24.65,15.26,48.43,1043.47,2056.99,2867.98,2682.51,3007.03,599.87,625.35,23.93,0000 0000 0000 0000 000000
2016-01-19 02:01:11,0.02,1.90,0.00,16.49,20.92,24.61,15.26,48.31,1043.47,2056.98,2867.32,2682.03,3006.99,599.99,625.58,23.98,0000 0000 0000 0000 000000
2016-01-19 02:06:13,0.01,1.90,0.00,16.49,20.92,24.67,15.24,48.33,1043.47,2056.97,2867.01,2682.00,3006.69,599.73,625.01,24.03,0000 0000 0000 0000 000000
2016-01-19 02:11:14,0.03,1.90,0.00,16.48,20.90,24.62,15.24,48.36,1043.47,2056.99,2866.65,2681.74,3006.04,599.63,625.09,24.08,0000 0000 0000 0000 000000
2016-01-19 02:16:15,0.03,1.90,0.00,16.49,20.89,24.60,15.25,48.48,1043.47,2056.98,2865.92,2681.03,3005.74,599.63,625.13,24.13,0000 0000 0000 0000 000000
2016-01-19 02:21:16,0.02,1.90,0.00,16.45,20.87,24.59,15.27,48.26,1043.47,2056.99,2865.08,2680.95,3005.06,599.85,625.54,24.18,0000 0000 0000 0000 000000
2016-01-19 02:26:17,0.04,1.90,0.00,16.45,20.87,24.57,15.30,48.38,1043.47,2056.99,2864.41,2680.22,3004.84,600.12,625.70,24.23,0000 0000 0000 0000 000000
2016-01-19 02:31:19,0.03,1.90,0.00,16.43,20.85,24.55,15.28,48.08,1043.47,2056.99,2863.83,2680.00,3004.04,600.07,625.75,24.28,0000 0000 0000 0000 000000
2016-01-19 02:36:20,0.05,1.91,0.00,16.42,20.83,24.52,15.37,48.46,1043.47,2056.99,2862.99,2679.48,3003.55,600.14,625.90,24.33,0000 0000 0000 0000 000000
2016-01-19 02:41:21,0.03,1.91,0.00,16.42,20.82,24.55,15.31,48.34,1043.47,2057.00,2861.91,2678.96,3003.00,599.77,625.45,24.38,0000 0000 0000 0000 000000
2016-01-19 02:46:22,0.05,1.91,0.00,16.38,20.79,24.50,15.41,48.24,1043.47,2057.00,2861.09,2678.23,3002.43,600.19,626.07,24.43,0000 0000 0000 0000 000000
2016-01-19 02:51:23,0.02,1.91,0.00,16.37,20.78,24.52,15.23,48.19,1043.47,2057.02,2860.23,2677.95,3001.95,599.64,625.32,24.48,0000 0000 0000 0000 000000
2016-01-19 02:56:25,0.06,1.92,0.00,16.33,20.76,24.48,15.28,48.15,1043.46,2057.03,2859.59,2677.25,3001.14,599.95,625.80,24.53,0000 0000 0000 0000 000000
2016-01-19 03:01:26,0.03,1.92,0.00,16.34,20.74,24.45,15.21,48.09,1043.47,2057.10,2858.62,2676.96,3000.76,599.75,625.60,24.58,0000 0000 0000 0000 000000
2016-01-19 03:06:27,0.09,1.92,0.00,16.33,20.72,24.44,15.22,48.15,1043.47,2057.37,2857.61,2676.22,3000.03,599.89,625.83,24.63,0000 0000 0000 0000 000000
2016-01-19 03:11:28,0.06,1.93,0.00,16.30,20.71,24.47,15.22,47.97,1043.47,2057.58,2856.76,2675.92,2999.63,599.99,625.93,24.68,0000 0000 0000 0000 000000
2016-01-19 03:16:30,0.07,1.93,0.00,16.31,20.69,24.39,15.35,48.38,1043.47,2057.65,2855.72,2675.10,2998.94,599.98,625.83,24.73,0000 0000 0000 0000 000000
2016-01-19 03:21:31,0.06,1.93,0.00,16.31,20.67,24.38,15.30,48.33,1043.47,2057.95,2855.00,2674.84,2998.16,599.86,625.77,24.78,0000 0000 0000 0000 000000
2016-01-19 03:26:33,0.06,1.94,0.00,16.26,20.65,24.36,15.27,48.39,1043.47,2057.96,2854.08,2674.04,2997.39,599.91,625.96,24.83,0000 0000 0000 0000 000000
2016-01-19 03:31:34,0.08,1.94,0.00,16.25,20.63,24.34,15.37,48.25,1043.46,2057.98,2852.83,2673.29,2996.64,599.96,625.99,24.88,0000 0000 0000 0000 000000
2016-01-19 03:36:36,0.07,1.94,0.00,16.22,20.61,24.34,15.34,48.26,1043.47,2057.98,2851.45,2672.53,2995.80,599.70,625.85,24.94,0000 0000 0000 0000 000000
2016-01-19 03:41:37,0.05,1.95,0.00,16.23,20.59,24.30,15.38,48.36,1043.46,2057.99,2850.18,2671.88,2994.93,600.23,626.32,24.99,0000 0000 0000 0000 000000
2016-01-19 03:46:38,0.07,1.95,0.00,16.22,20.57,24.26,15.36,48.48,1043.44,2057.99,2848.85,2671.04,2994.07,600.21,626.39,25.04,0000 0000 0000 0000 000000
2016-01-19 03:51:40,0.07,1.95,0.00,16.18,20.54,24.27,15.23,48.09,1043.44,2057.99,2847.51,2670.20,2993.15,599.83,625.96,25.09,0000 0000 0000 0000 000000
2016-01-19 03:56:41,0.07,1.96,0.00,16.16,20.52,24.22,15.33,48.48,1043.37,2058.00,2846.07,2669.47,2992.40,600.04,626.24,25.14,0000 0000 0000 0000 000000
2016-01-19 04:01:42,0.06,1.96,0.00,16.17,20.49,24.21,15.27,48.37,1043.34,2058.01,2844.65,2668.73,2991.62,600.12,626.27,25.19,0000 0000 0000 0000 000000
2016-01-19 04:06:44,0.05,1.96,0.00,16.14,20.47,24.18,15.32,48.45,1043.42,2058.03,2843.53,2668.00,2990.76,599.90,626.18,25.24,0000 0000 0000 0000 000000
2016-01-19 04:11:45,0.08,1.97,0.00,16.12,20.45,24.13,15.32,48.13,1043.46,2058.08,2842.39,2667.20,2989.76,599.87,626.10,25.29,0000 0000 0000 0000 000000
2016-01-19 04:16:46,0.08,1.97,0.00,16.09,20.43,24.13,15.31,48.18,1043.44,2058.15,2840.80,2666.18,2988.72,600.09,626.50,25.34,0000 0000 0000 0000 000000
2016-01-19 04:21:48,0.16,1.98,0.00,16.07,20.41,24.14,15.34,48.42,1043.42,2058.21,2838.45,2664.77,2987.13,600.15,626.61,25.39,0000 0000 0000 0000 000000
2016-01-19 04:26:49,0.16,1.99,0.00,16.06,20.39,24.14,15.40,48.62,1043.38,2058.71,2835.97,2663.01,2985.28,599.98,626.47,25.44,0000 0000 0000 0000 000000
2016-01-19 04:31:50,0.09,1.99,0.00,16.03,20.37,24.09,15.29,48.41,1043.33,2058.93,2834.36,2662.04,2984.08,599.86,626.29,25.49,0000 0000 0000 0000 000000
2016-01-19 04:36:52,0.06,2.00,0.00,16.00,20.35,24.11,15.26,48.33,1043.42,2058.97,2833.48,2661.24,2983.24,599.84,626.38,25.54,0000 0000 0000 0000 000000
2016-01-19 04:41:53,0.03,2.00,0.00,15.99,20.34,24.05,15.34,48.46,1043.44,2058.98,2832.53,2660.84,2982.80,600.33,626.99,25.59,0000 0000 0000 0000 000000
2016-01-19 04:46:54,0.05,2.00,0.00,15.97,20.33,24.05,15.36,48.49,1043.44,2058.98,2831.53,2660.06,2982.00,599.96,626.61,25.64,0000 0000 0000 0000 000000
2016-01-19 04:51:55,0.12,2.01,0.00,15.95,20.32,24.03,15.29,48.32,1043.34,2058.99,2829.88,2658.94,2980.77,600.32,626.96,25.69,0000 0000 0000 0000 000000
2016-01-19 04:56:56,0.12,2.01,0.00,15.89,20.29,24.05,15.40,48.42,1043.06,2058.99,2827.68,2657.43,2979.09,600.00,626.59,25.74,0000 0000 0000 0000 000000
2016-01-19 05:01:57,0.09,2.02,0.00,15.90,20.29,24.01,15.31,48.16,1043.04,2058.99,2826.23,2656.30,2977.73,599.97,626.43,25.79,0000 0000 0000 0000 000000
2016-01-19 05:06:59,0.08,2.02,0.00,15.88,20.27,24.01,15.30,48.31,1043.03,2058.99,2824.56,2655.30,2976.65,600.15,626.73,25.84,0000 0000 0000 0000 000000
2016-01-19 05:12:00,0.07,2.03,0.00,15.89,20.25,24.01,15.35,48.30,1043.02,2058.99,2823.06,2654.30,2975.65,599.84,626.43,25.89,0000 0000 0000 0000 000000
2016-01-19 05:17:01,0.09,2.03,0.00,15.89,20.24,23.96,15.36,48.22,1043.02,2059.00,2821.64,2653.34,2974.48,600.10,626.62,25.94,0000 0000 0000 0000 000000
2016-01-19 05:22:02,0.07,2.03,0.00,15.86,20.22,23.93,15.34,48.17,1043.01,2059.00,2820.18,2652.47,2973.47,599.99,626.67,25.99,0000 0000 0000 0000 000000
2016-01-19 05:27:03,0.07,2.04,0.00,15.82,20.21,23.93,15.33,48.15,1043.03,2059.00,2818.73,2651.67,2972.52,599.91,626.75,26.04,0000 0000 0000 0000 000000
2016-01-19 05:32:04,0.04,2.04,0.00,15.80,20.19,23.91,15.32,48.45,1043.04,2059.03,2817.68,2651.01,2971.98,600.05,626.79,26.09,0000 0000 0000 0000 000000
2016-01-19 05:37:05,0.07,2.04,0.00,15.78,20.17,23.92,15.35,48.49,1043.05,2059.06,2816.66,2650.45,2971.23,600.15,626.97,26.14,0000 0000 0000 0000 000000
2016-01-19 05:42:07,0.04,2.05,0.00,15.76,20.15,23.88,15.35,48.41,1043.05,2059.16,2815.94,2650.00,2970.84,599.90,626.83,26.19,0000 0000 0000 0000 000000
2016-01-19 05:47:08,0.08,2.05,0.00,15.76,20.13,23.85,15.32,48.40,1043.02,2059.51,2815.12,2649.53,2970.10,600.10,626.96,26.24,0000 0000 0000 0000 000000
2016-01-19 05:52:09,0.05,2.05,0.00,15.74,20.11,23.85,15.24,48.43,1043.06,2059.81,2814.49,2649.01,2969.76,599.58,626.56,26.29,0000 0000 0000 0000 000000
2016-01-19 05:57:11,0.05,2.06,0.00,15.73,20.09,23.81,15.28,48.34,1043.03,2059.95,2813.75,2648.67,2969.06,599.66,626.51,26.34,0000 0000 0000 0000 000000
2016-01-19 06:02:12,0.03,2.06,0.00,15.70,20.07,23.76,15.39,48.29,1043.08,2059.97,2812.94,2648.03,2968.77,600.38,627.40,26.39,0000 0000 0000 0000 000000
2016-01-19 06:07:13,0.04,2.06,0.00,15.69,20.04,23.80,15.31,48.17,1043.06,2059.98,2812.08,2647.83,2968.04,599.79,626.80,26.44,0000 0000 0000 0000 000000
2016-01-19 06:12:15,0.05,2.06,0.00,15.68,20.03,23.76,15.33,48.11,1043.13,2059.98,2811.51,2647.09,2967.66,600.03,627.05,26.49,0000 0000 0000 0000 000000
2016-01-19 06:17:16,0.03,2.07,0.00,15.66,20.01,23.75,15.35,48.28,1043.20,2059.99,2810.73,2646.78,2966.98,600.11,627.20,26.54,0000 0000 0000 0000 000000
2016-01-19 06:22:17,0.05,2.07,0.00,15.65,19.99,23.73,15.32,48.30,1043.15,2059.99,2809.96,2646.06,2966.22,599.94,627.11,26.59,0000 0000 0000 0000 000000
2016-01-19 06:27:18,0.03,2.07,0.00,15.63,19.97,23.70,15.22,48.15,1043.08,2059.99,2809.10,2645.83,2965.86,599.52,626.73,26.64,0000 0000 0000 0000 000000
2016-01-19 06:32:19,0.06,2.07,0.00,15.61,19.95,23.68,15.32,48.08,1043.01,2060.00,2808.22,2645.06,2965.05,599.78,626.86,26.69,0000 0000 0000 0000 000000
2016-01-19 06:37:21,0.07,2.08,0.00,15.60,19.93,23.69,15.41,48.17,1043.00,2060.01,2807.07,2644.35,2964.19,600.46,627.66,26.74,0000 0000 0000 0000 000000
2016-01-19 06:42:22,0.06,2.08,0.00,15.57,19.92,23.64,15.36,48.24,1043.00,2060.02,2805.88,2643.71,2963.41,600.09,627.39,26.79,0000 0000 0000 0000 000000
2016-01-19 06:47:23,0.07,2.08,0.00,15.57,19.89,23.67,15.47,48.60,1042.99,2060.03,2804.52,2642.85,2962.49,600.22,627.45,26.84,0000 0000 0000 0000 000000
2016-01-19 06:52:25,0.07,2.09,0.00,15.56,19.88,23.61,15.25,48.41,1043.00,2060.06,2802.91,2641.95,2961.55,599.81,627.09,26.89,0000 0000 0000 0000 000000
2016-01-19 06:57:26,0.09,2.09,0.00,15.53,19.86,23.57,15.30,48.36,1042.99,2060.12,2801.35,2641.01,2960.58,599.93,627.25,26.94,0000 0000 0000 0000 000000
2016-01-19 07:02:28,0.12,2.10,0.00,15.49,19.83,23.55,15.31,48.44,1042.99,2060.37,2799.80,2640.09,2959.49,599.74,627.09,26.99,0000 0000 0000 0000 000000
2016-01-19 07:07:29,0.11,2.10,0.00,15.47,19.81,23.54,15.46,48.38,1043.02,2060.73,2798.07,2639.08,2958.42,600.04,627.45,27.04,0000 0000 0000 0000 000000
2016-01-19 07:12:30,0.13,2.11,0.00,15.42,19.79,23.54,15.38,48.49,1043.02,2060.84,2796.05,2637.85,2956.99,600.12,627.70,27.09,0000 0000 0000 0000 000000
2016-01-19 07:17:32,0.07,2.12,0.00,15.42,19.77,23.49,15.41,48.32,1043.02,2060.96,2794.47,2637.01,2956.04,600.10,627.72,27.14,0000 0000 0000 0000 000000
2016-01-19 07:22:33,0.07,2.12,0.00,15.40,19.74,23.47,15.29,48.37,1043.00,2060.98,2793.55,2636.35,2955.37,599.73,627.30,27.19,0000 0000 0000 0000 000000
2016-01-19 07:27:34,0.02,2.12,0.00,15.35,19.72,23.43,15.40,48.34,1043.00,2060.98,2792.61,2635.97,2954.90,600.25,627.98,27.24,0000 0000 0000 0000 000000
2016-01-19 07:32:35,0.07,2.12,0.00,15.37,19.70,23.42,15.34,48.26,1043.03,2060.99,2791.57,2635.19,2954.05,600.10,627.84,27.29,0000 0000 0000 0000 000000
2016-01-19 07:37:37,0.07,2.13,0.00,15.33,19.68,23.41,15.32,48.27,1043.01,2060.99,2790.22,2634.49,2953.20,599.98,627.75,27.34,0000 0000 0000 0000 000000
2016-01-19 07:42:38,0.04,2.13,0.00,15.29,19.65,23.38,15.25,48.42,1042.99,2060.99,2789.07,2633.91,2952.50,599.86,627.65,27.39,0000 0000 0000 0000 000000
2016-01-19 07:47:39,0.05,2.13,0.00,15.30,19.63,23.34,15.37,48.52,1043.00,2061.02,2788.04,2633.08,2951.98,600.20,628.06,27.44,0000 0000 0000 0000 000000
2016-01-19 07:52:40,0.06,2.14,0.00,15.28,19.61,23.33,15.37,48.89,1042.99,2061.08,2787.10,2632.71,2951.14,599.93,627.78,27.49,0000 0000 0000 0000 000000
2016-01-19 07:57:42,0.10,2.14,0.00,15.27,19.59,23.29,15.27,48.67,1043.01,2061.16,2785.72,2631.73,2950.16,599.96,627.85,27.54,0000 0000 0000 0000 000000
2016-01-19 08:02:43,0.14,2.15,0.00,15.25,19.57,23.32,15.37,48.65,1043.00,2061.29,2783.66,2630.47,2948.72,600.19,628.24,27.59,0000 0000 0000 0000 000000
2016-01-19 08:07:44,0.15,2.15,0.00,15.21,19.54,23.28,15.34,48.45,1043.00,2061.58,2781.05,2628.94,2947.06,600.10,628.13,27.64,0000 0000 0000 0000 000000
2016-01-19 08:12:45,0.09,2.16,0.00,15.19,19.53,23.25,15.39,48.51,1043.00,2061.67,2779.22,2627.96,2945.92,599.90,627.97,27.69,0000 0000 0000 0000 000000
2016-01-19 08:17:47,0.08,2.16,0.00,15.19,19.50,23.25,15.38,48.43,1043.00,2061.95,2778.22,2627.15,2945.09,599.98,628.07,27.74,0000 0000 0000 0000 000000
2016-01-19 08:22:48,0.02,2.17,0.00,15.18,19.49,23.20,15.30,48.29,1042.99,2061.98,2777.45,2626.97,2944.81,599.76,627.92,27.79,0000 0000 0000 0000 000000
2016-01-19 08:27:49,0.06,2.17,0.00,15.15,19.47,23.19,15.36,48.32,1043.00,2061.98,2776.66,2626.31,2944.05,600.28,628.49,27.84,0000 0000 0000 0000 000000
2016-01-19 08:32:50,0.02,2.17,0.00,15.15,19.44,23.17,15.35,48.26,1042.99,2061.98,2775.91,2625.97,2943.71,600.08,628.23,27.89,0000 0000 0000 0000 000000
2016-01-19 08:37:52,0.06,2.17,0.00,15.12,19.42,23.16,15.39,48.24,1042.99,2061.99,2775.02,2625.23,2943.02,600.05,628.25,27.94,0000 0000 0000 0000 000000
2016-01-19 08:42:53,0.03,2.18,0.00,15.08,19.40,23.14,15.37,48.25,1042.99,2061.99,2774.16,2624.99,2942.46,599.88,628.27,27.99,0000 0000 0000 0000 000000
2016-01-19 08:47:54,0.05,2.18,0.00,15.07,19.38,23.10,15.40,48.22,1042.99,2061.99,2773.14,2624.27,2941.99,599.99,628.39,28.04,0000 0000 0000 0000 000000
2016-01-19 08:52:56,0.03,2.18,0.00,15.06,19.36,23.10,15.31,48.16,1043.00,2062.00,2772.26,2623.98,2941.30,600.19,628.55,28.09,0000 0000 0000 0000 000000
2016-01-19 08:57:57,0.06,2.18,0.00,15.01,19.33,23.09,15.38,48.34,1042.99,2062.01,2771.29,2623.23,2940.96,600.14,628.47,28.14,0000 0000 0000 0000 000000
2016-01-19 09:02:59,0.04,2.19,0.00,14.96,19.31,23.06,15.37,48.47,1043.00,2062.03,2770.40,2623.00,2940.20,600.52,628.97,28.19,0000 0000 0000 0000 000000
2016-01-19 09:08:00,0.05,2.19,0.00,14.96,19.28,23.03,15.40,48.41,1043.00,2062.12,2769.63,2622.73,2940.00,600.33,628.90,28.24,0000 0000 0000 0000 000000
2016-01-19 09:13:01,0.08,2.19,0.00,14.95,19.26,23.01,15.42,48.80,1043.05,2062.38,2768.50,2622.04,2939.39,600.16,628.72,28.29,0000 0000 0000 0000 000000
2016-01-19 09:18:03,0.05,2.19,0.00,14.92,19.24,22.98,15.34,48.77,1043.05,2062.82,2767.99,2621.91,2939.00,599.81,628.32,28.34,0000 0000 0000 0000 000000
2016-01-19 09:23:04,0.07,2.20,0.00,14.88,19.22,22.95,15.44,48.95,1043.01,2062.97,2767.30,2621.15,2938.51,600.17,628.94,28.39,0000 0000 0000 0000 000000
2016-01-19 09:28:06,0.01,2.20,0.00,14.88,19.20,22.94,15.41,48.48,1043.02,2062.99,2766.77,2620.99,2938.02,600.38,629.10,28.44,0000 0000 0000 0000 000000
2016-01-19 09:33:07,0.04,2.20,0.00,14.88,19.19,22.94,15.34,48.55,1043.02,2062.98,2765.99,2620.58,2937.72,599.86,628.58,28.50,0000 0000 0000 0000 000000
2016-01-19 09:38:08,0.03,2.20,0.00,14.87,19.19,22.93,15.34,48.49,1043.01,2062.99,2765.25,2620.02,2937.03,600.02,628.94,28.55,0000 0000 0000 0000 000000
2016-01-19 09:43:10,0.04,2.20,0.00,14.86,19.19,22.91,15.48,48.36,1043.01,2062.99,2764.99,2619.74,2936.43,600.23,629.05,28.60,0000 0000 0000 0000 000000
2016-01-19 09:48:11,0.07,2.21,0.00,14.83,19.18,22.92,15.38,48.33,1043.02,2062.99,2763.82,2618.89,2935.52,600.02,629.01,28.65,0000 0000 0000 0000 000000
2016-01-19 09:53:12,0.07,2.21,0.00,14.80,19.17,22.89,15.41,48.31,1043.02,2062.99,2762.43,2618.01,2934.50,600.13,629.03,28.70,0000 0000 0000 0000 000000
2016-01-19 09:58:13,0.08,2.22,0.00,14.78,19.16,22.90,15.37,48.38,1043.01,2062.99,2760.83,2617.11,2933.53,600.11,629.00,28.75,0000 0000 0000 0000 000000
2016-01-19 10:03:14,0.07,2.22,0.00,14.76,19.14,22.93,15.42,48.34,1043.02,2062.99,2759.50,2616.23,2932.69,599.84,629.16,28.80,0000 0000 0000 0000 000000
2016-01-19 10:08:15,0.06,2.22,0.00,14.73,19.13,22.88,15.27,48.28,1043.01,2062.99,2758.24,2615.56,2931.90,599.73,628.80,28.85,0000 0000 0000 0000 000000
2016-01-19 10:13:17,0.05,2.23,0.00,14.72,19.11,22.85,15.40,48.27,1043.02,2063.00,2756.93,2614.90,2931.07,600.23,629.36,28.90,0000 0000 0000 0000 000000
2016-01-19 10:18:18,0.07,2.23,0.00,14.70,19.09,22.83,15.30,48.27,1043.03,2063.01,2755.74,2614.08,2930.30,599.91,629.03,28.95,0000 0000 0000 0000 000000
2016-01-19 10:23:20,0.02,2.23,0.00,14.68,19.06,22.80,15.42,48.52,1043.01,2063.01,2754.90,2613.85,2929.97,599.87,628.92,29.00,0000 0000 0000 0000 000000
2016-01-19 10:28:21,0.07,2.24,0.00,14.69,19.04,22.79,15.51,48.67,1043.03,2063.05,2753.85,2613.06,2929.20,600.21,629.39,29.05,0000 0000 0000 0000 000000
2016-01-19 10:33:22,0.05,2.24,0.00,14.64,19.02,22.75,15.45,48.56,1043.10,2063.21,2753.01,2612.84,2928.93,599.91,629.23,29.10,0000 0000 0000 0000 000000
2016-01-19 10:38:23,0.06,2.24,0.00,14.63,19.00,22.72,15.43,48.53,1043.15,2063.26,2752.22,2612.07,2928.11,600.21,629.55,29.15,0000 0000 0000 0000 000000
2016-01-19 10:43:25,0.08,2.24,0.00,14.60,18.99,22.72,15.34,48.42,1043.18,2063.48,2751.38,2611.70,2927.68,599.90,629.37,29.20,0000 0000 0000 0000 000000
2016-01-19 10:48:26,0.07,2.25,0.00,14.55,18.97,22.68,15.34,48.49,1043.17,2063.89,2750.60,2611.03,2927.02,600.12,629.72,29.25,0000 0000 0000 0000 000000
2016-01-19 10:53:28,0.04,2.25,0.00,14.55,18.95,22.70,15.39,48.42,1043.05,2063.96,2749.81,2610.78,2926.37,600.00,629.45,29.30,0000 0000 0000 0000 000000
2016-01-19 10:58:29,0.04,2.25,0.00,14.54,18.93,22.67,15.41,48.39,1043.03,2063.97,2748.98,2610.04,2925.97,600.05,629.56,29.35,0000 0000 0000 0000 000000
2016-01-19 11:03:31,0.05,2.26,0.00,14.54,18.92,22.66,15.36,48.45,1043.05,2063.97,2748.08,2609.79,2925.16,599.97,629.47,29.40,0000 0000 0000 0000 000000
2016-01-19 11:08:32,0.04,2.26,0.00,14.52,18.89,22.62,15.38,48.42,1043.07,2063.99,2747.04,2609.07,2924.94,599.76,629.40,29.45,0000 0000 0000 0000 000000
2016-01-19 11:13:34,0.04,2.26,0.00,14.50,18.88,22.59,15.29,48.30,1043.14,2063.99,2746.04,2608.86,2924.17,599.97,629.52,29.50,0000 0000 0000 0000 000000
2016-01-19 11:18:35,0.05,2.26,0.00,14.47,18.85,22.59,15.38,48.51,1043.28,2063.99,2745.12,2608.07,2923.87,600.06,629.74,29.55,0000 0000 0000 0000 000000
2016-01-19 11:23:36,0.04,2.27,0.00,14.44,18.84,22.58,15.44,48.56,1043.21,2063.99,2744.14,2607.94,2923.08,600.33,630.23,29.60,0000 0000 0000 0000 000000
2016-01-19 11:28:37,0.03,2.27,0.00,14.44,18.82,22.54,15.37,48.62,1043.08,2064.02,2743.80,2607.26,2922.99,599.74,629.44,29.65,0000 0000 0000 0000 000000
2016-01-19 11:33:38,0.02,2.27,0.00,14.40,18.80,22.54,15.41,48.54,1043.04,2064.04,2743.09,2607.01,2922.66,600.03,629.82,29.70,0000 0000 0000 0000 000000
2016-01-19 11:38:40,0.04,2.27,0.00,14.39,18.79,22.51,15.38,48.54,1043.01,2064.25,2743.00,2606.99,2922.04,599.93,629.75,29.75,0000 0000 0000 0000 000000
2016-01-19 11:43:41,0.05,2.27,0.00,14.36,18.77,22.51,15.41,48.45,1043.01,2064.33,2742.55,2606.48,2921.78,599.99,629.93,29.80,0000 0000 0000 0000 000000
2016-01-19 11:48:43,0.06,2.28,0.00,14.31,18.76,22.50,15.44,48.48,1042.99,2064.61,2741.80,2606.01,2921.07,599.95,630.17,29.85,0000 0000 0000 0000 000000
2016-01-19 11:53:44,0.04,2.28,0.00,14.32,18.74,22.48,15.37,48.33,1042.99,2064.71,2741.04,2605.85,2920.92,599.93,629.84,29.90,0000 0000 0000 0000 000000
2016-01-19 11:58:45,0.06,2.28,0.00,14.34,18.72,22.45,15.34,48.35,1042.99,2064.87,2740.37,2605.12,2920.17,599.93,629.95,29.95,0000 0000 0000 0000 000000
2016-01-19 12:03:46,0.02,2.28,0.00,14.33,18.70,22.41,15.44,48.45,1042.99,2064.91,2739.82,2604.99,2920.00,599.96,629.90,30.00,0000 0000 0000 0000 000000
2016-01-19 12:08:47,0.06,2.29,0.00,14.31,18.68,22.41,15.42,48.57,1042.99,2064.95,2739.05,2604.48,2919.49,600.10,630.08,30.05,0000 0000 0000 0000 000000
2016-01-19 12:13:48,0.02,2.29,0.00,14.28,18.66,22.37,15.40,48.67,1042.99,2064.97,2738.44,2604.04,2919.03,599.74,629.86,30.10,0000 0000 0000 0000 000000
2016-01-19 12:18:49,0.00,2.29,0.00,14.25,18.64,22.39,15.46,48.57,1042.99,2064.98,2737.97,2604.00,2918.99,600.23,630.38,30.15,0000 0000 0000 0000 000000
2016-01-19 12:23:51,0.03,2.29,0.00,14.23,18.62,22.40,15.38,48.47,1042.99,2064.99,2737.18,2603.85,2918.62,599.96,630.12,30.20,0000 0000 0000 0000 000000
2016-01-19 12:28:52,0.03,2.29,0.00,14.19,18.59,22.33,15.51,48.63,1042.99,2064.99,2736.98,2603.17,2918.03,600.18,630.44,30.25,0000 0000 0000 0000 000000
2016-01-19 12:33:54,0.02,2.29,0.00,14.19,18.57,22.31,15.39,48.50,1042.99,2064.99,2736.39,2603.01,2917.96,599.82,630.07,30.30,0000 0000 0000 0000 000000
2016-01-19 12:38:55,0.02,2.29,0.00,14.21,18.57,22.30,15.44,48.39,1042.99,2065.00,2735.99,2602.95,2917.31,600.15,630.28,30.35,0000 0000 0000 0000 000000
2016-01-19 12:43:56,0.04,2.30,0.00,14.20,18.55,22.30,15.48,48.35,1042.99,2065.02,2735.23,2602.41,2917.01,600.18,630.41,30.40,0000 0000 0000 0000 000000
2016-01-19 12:48:57,0.02,2.30,0.00,14.18,18.53,22.24,15.40,48.58,1042.99,2065.04,2734.71,2602.03,2916.95,599.83,630.07,30.45,0000 0000 0000 0000 000000
2016-01-19 12:53:59,0.03,2.30,0.00,14.16,18.52,22.23,15.40,48.50,1042.98,2065.05,2733.93,2601.92,2916.27,599.86,630.06,30.50,0000 0000 0000 0000 000000